Location: Unspecified
(10.5000°N, 0.0000°E)
Time: 20:44:38
(UTC+00:00)

Envisat - Pass Details

Date: 20 June 2019
Orbit: 764 x 766 km, 98.1° (Epoch: 19 July)

Event Time Altitude Azimuth Distance (km) Brightness Sun altitude
Rises 19:27:46 0° 192° (SSW) 3,223 6.1 -15.0°
Reaches altitude 10° 19:30:25 10° 205° (SSW) 2,298 5.4 -15.6°
Maximum altitude 19:34:33 25° 260° (W) 1,493 5.1 -16.5°
Drops below altitude 10° 19:38:41 10° 315° (NW) 2,297 6.6 -17.4°
Sets 19:41:21 0° 328° (NNW) 3,222 7.3 -17.9°
